When you browse on this site, cookies collect data to enhance your experience and personalize the content and advertising you see.
Visit our Privacy Policy to learn more. By continuing to use the site, you agree to this use of cookies and data.
  • In Hungary
  • List of Countries
  • For 7 days
  • Water Temperature
  • Weather Map
  • News
  • Weather Widgets
  • user-avatar
    Login

    Hourly Weather Nowy Wisnicz

    Today, 12 November, Tuesday

    Time Temperature Precipitation Wind Pressure Humidity
    00:00 +4°C° 0 mm 2 mps 734 mmHg 83%
    01:00 +4°C° 0 mm 2 mps 734 mmHg 81%
    02:00 +4°C° 0 mm 2 mps 734 mmHg 81%
    03:00 +4°C° 0 mm 2 mps 733 mmHg 81%
    04:00 +4°C° 0 mm 2 mps 733 mmHg 81%
    05:00 +4°C° 0 mm 2 mps 733 mmHg 82%
    06:00 +5°C° 0 mm 2 mps 733 mmHg 82%
    07:00 +5°C° 0 mm 2 mps 733 mmHg 83%
    08:00 +6°C° 0 mm 2 mps 733 mmHg 78%
    09:00 +8°C° 0 mm 2 mps 733 mmHg 74%
    10:00 +9°C° 0 mm 2 mps 732 mmHg 69%
    11:00 +10°C° 0 mm 2 mps 732 mmHg 70%
    12:00 +10°C° 0 mm 2 mps 732 mmHg 70%
    13:00 +10°C° 0 mm 2 mps 732 mmHg 70%
    14:00 +10°C° 0 mm 2 mps 731 mmHg 72%
    15:00 +9°C° 0 mm 2 mps 731 mmHg 74%
    16:00 +9°C° 0 mm 3 mps 730 mmHg 77%
    17:00 +8°C° 0 mm 2 mps 730 mmHg 79%
    18:00 +8°C° 0 mm 2 mps 730 mmHg 81%
    19:00 +8°C° 0 mm 1 mps 730 mmHg 83%
    20:00 +7°C° 0 mm 2 mps 730 mmHg 84%
    21:00 +7°C° 0 mm 2 mps 729 mmHg 84%
    22:00 +7°C° 0 mm 2 mps 729 mmHg 85%
    23:00 +7°C° 0 mm 2 mps 729 mmHg 86%

    Tomorrow, 13 November, Wednesday

    Time Temperature Precipitation Wind Pressure Humidity
    00:00 +8°C° 0 mm 2 mps 729 mmHg 86%
    01:00 +8°C° 0 mm 3 mps 728 mmHg 87%
    02:00 +9°C° 0 mm 3 mps 728 mmHg 86%
    03:00 +9°C° 0 mm 3 mps 728 mmHg 85%
    04:00 +10°C° 0 mm 4 mps 727 mmHg 84%
    05:00 +10°C° 0.1 mm 3 mps 727 mmHg 85%
    06:00 +10°C° 0.1 mm 3 mps 727 mmHg 86%
    07:00 +10°C° 0.1 mm 3 mps 727 mmHg 88%
    08:00 +11°C° 0.1 mm 3 mps 727 mmHg 85%
    09:00 +12°C° 0.1 mm 4 mps 727 mmHg 82%
    10:00 +13°C° 0.1 mm 4 mps 727 mmHg 79%
    11:00 +14°C° 0 mm 4 mps 727 mmHg 77%
    12:00 +14°C° 0 mm 3 mps 727 mmHg 74%
    13:00 +14°C° 0 mm 3 mps 727 mmHg 72%
    14:00 +13°C° 0 mm 3 mps 726 mmHg 76%
    15:00 +13°C° 0 mm 2 mps 726 mmHg 80%
    16:00 +12°C° 0 mm 2 mps 726 mmHg 85%
    17:00 +11°C° 0 mm 3 mps 726 mmHg 86%
    18:00 +11°C° 0 mm 3 mps 725 mmHg 87%
    19:00 +10°C° 0 mm 4 mps 725 mmHg 88%
    20:00 +10°C° 0 mm 4 mps 726 mmHg 87%
    21:00 +10°C° 0 mm 3 mps 726 mmHg 86%
    22:00 +11°C° 0 mm 3 mps 726 mmHg 85%
    23:00 +10°C° 0 mm 3 mps 727 mmHg 85%

    Day after tomorrow, 14 November, Thursday

    Time Temperature Precipitation Wind Pressure Humidity
    00:00 +10°C° 0 mm 2 mps 727 mmHg 86%
    01:00 +10°C° 0 mm 2 mps 728 mmHg 87%
    02:00 +10°C° 0.1 mm 2 mps 728 mmHg 89%
    03:00 +10°C° 0.1 mm 1 mps 728 mmHg 91%
    04:00 +10°C° 0.1 mm 1 mps 728 mmHg 94%
    05:00 +10°C° 0.3 mm 1 mps 729 mmHg 94%
    06:00 +9°C° 0.3 mm 1 mps 729 mmHg 94%
    07:00 +9°C° 0.3 mm 1 mps 729 mmHg 95%
    08:00 +10°C° 0.2 mm 1 mps 730 mmHg 94%
    09:00 +10°C° 0.2 mm 1 mps 730 mmHg 92%
    10:00 +10°C° 0.2 mm 1 mps 730 mmHg 91%
    11:00 +11°C° 0 mm 1 mps 730 mmHg 89%
    12:00 +12°C° 0 mm 1 mps 730 mmHg 87%
    13:00 +13°C° 0 mm 1 mps 730 mmHg 85%
    14:00 +12°C° 0 mm 1 mps 730 mmHg 87%
    15:00 +12°C° 0 mm 1 mps 730 mmHg 90%
    16:00 +11°C° 0 mm 1 mps 730 mmHg 93%
    17:00 +11°C° 0 mm 1 mps 730 mmHg 93%
    18:00 +11°C° 0 mm 1 mps 731 mmHg 93%
    19:00 +11°C° 0 mm 1 mps 731 mmHg 93%
    20:00 +10°C° 0 mm 2 mps 731 mmHg 93%
    21:00 +10°C° 0 mm 2 mps 731 mmHg 92%
    22:00 +10°C° 0 mm 2 mps 731 mmHg 92%
    23:00 +10°C° 0 mm 2 mps 731 mmHg 92%

    15 November, Friday

    Time Temperature Precipitation Wind Pressure Humidity
    00:00 +10°C° 0 mm 2 mps 731 mmHg 91%
    01:00 +10°C° 0 mm 2 mps 731 mmHg 91%
    02:00 +10°C° 0 mm 2 mps 731 mmHg 91%
    03:00 +10°C° 0 mm 2 mps 731 mmHg 91%
    04:00 +9°C° 0 mm 2 mps 731 mmHg 91%
    05:00 +9°C° 0 mm 2 mps 731 mmHg 91%
    06:00 +9°C° 0 mm 2 mps 732 mmHg 91%
    07:00 +9°C° 0 mm 2 mps 732 mmHg 91%
    08:00 +10°C° 0 mm 3 mps 732 mmHg 84%
    09:00 +12°C° 0 mm 3 mps 732 mmHg 78%
    10:00 +14°C° 0 mm 4 mps 733 mmHg 71%
    11:00 +15°C° 0 mm 4 mps 733 mmHg 68%
    12:00 +15°C° 0 mm 5 mps 733 mmHg 66%
    13:00 +16°C° 0 mm 5 mps 733 mmHg 63%
    14:00 +15°C° 0 mm 5 mps 733 mmHg 68%
    15:00 +13°C° 0 mm 4 mps 733 mmHg 72%
    16:00 +12°C° 0 mm 4 mps 733 mmHg 77%
    17:00 +12°C° 0 mm 4 mps 733 mmHg 79%
    18:00 +11°C° 0 mm 4 mps 733 mmHg 80%
    19:00 +11°C° 0 mm 4 mps 734 mmHg 82%
    20:00 +11°C° 0 mm 4 mps 734 mmHg 82%
    21:00 +11°C° 0 mm 4 mps 734 mmHg 82%
    22:00 +11°C° 0 mm 4 mps 734 mmHg 82%
    23:00 +11°C° 0 mm 4 mps 734 mmHg 82%

    16 November, Saturday

    Time Temperature Precipitation Wind Pressure Humidity
    00:00 +11°C° 0 mm 3 mps 734 mmHg 83%
    01:00 +11°C° 0 mm 3 mps 734 mmHg 83%
    02:00 +10°C° 0 mm 3 mps 735 mmHg 83%
    03:00 +10°C° 0 mm 3 mps 735 mmHg 83%
    04:00 +10°C° 0 mm 3 mps 735 mmHg 82%
    05:00 +10°C° 0 mm 3 mps 735 mmHg 83%
    06:00 +10°C° 0 mm 3 mps 735 mmHg 83%
    07:00 +10°C° 0 mm 3 mps 735 mmHg 83%
    08:00 +11°C° 0 mm 3 mps 736 mmHg 78%
    09:00 +12°C° 0 mm 3 mps 736 mmHg 73%
    10:00 +13°C° 0 mm 3 mps 736 mmHg 68%
    11:00 +14°C° 0 mm 3 mps 736 mmHg 67%
    12:00 +14°C° 0 mm 3 mps 736 mmHg 66%
    13:00 +16°C° 0 mm 2 mps 736 mmHg 65%
    14:00 +15°C° 0 mm 2 mps 736 mmHg 68%
    15:00 +14°C° 0 mm 2 mps 736 mmHg 71%
    16:00 +13°C° 0 mm 2 mps 736 mmHg 75%
    17:00 +13°C° 0 mm 2 mps 736 mmHg 77%
    18:00 +12°C° 0 mm 2 mps 736 mmHg 79%
    19:00 +12°C° 0 mm 2 mps 736 mmHg 81%
    20:00 +10°C° 0 mm 2 mps 737 mmHg 82%
    21:00 +10°C° 0 mm 2 mps 737 mmHg 82%
    22:00 +10°C° 0 mm 2 mps 737 mmHg 83%
    23:00 +10°C° 0 mm 2 mps 737 mmHg 83%

    17 November, Sunday

    Time Temperature Precipitation Wind Pressure Humidity
    00:00 +9°C° 0 mm 2 mps 736 mmHg 83%
    01:00 +9°C° 0 mm 2 mps 736 mmHg 82%
    02:00 +9°C° 0 mm 2 mps 736 mmHg 82%
    03:00 +9°C° 0 mm 2 mps 735 mmHg 82%
    04:00 +9°C° 0 mm 2 mps 735 mmHg 81%
    05:00 +8°C° 0 mm 2 mps 735 mmHg 81%
    06:00 +8°C° 0 mm 2 mps 735 mmHg 81%
    07:00 +8°C° 0 mm 2 mps 735 mmHg 81%
    08:00 +9°C° 0 mm 2 mps 735 mmHg 76%
    09:00 +12°C° 0 mm 2 mps 735 mmHg 71%
    10:00 +13°C° 0 mm 2 mps 735 mmHg 66%
    11:00 +13°C° 0 mm 3 mps 735 mmHg 63%
    12:00 +14°C° 0 mm 3 mps 735 mmHg 61%
    13:00 +16°C° 0 mm 3 mps 734 mmHg 59%
    14:00 +14°C° 0 mm 3 mps 734 mmHg 64%
    15:00 +12°C° 0 mm 3 mps 734 mmHg 70%
    16:00 +11°C° 0 mm 3 mps 734 mmHg 75%
    17:00 +10°C° 0 mm 3 mps 734 mmHg 77%
    18:00 +10°C° 0 mm 3 mps 734 mmHg 80%
    19:00 +9°C° 0 mm 3 mps 734 mmHg 82%
    20:00 +9°C° 0 mm 3 mps 734 mmHg 82%
    21:00 +8°C° 0 mm 2 mps 734 mmHg 83%
    22:00 +8°C° 0 mm 2 mps 734 mmHg 83%
    23:00 +8°C° 0 mm 2 mps 734 mmHg 83%
    Show more